When you browse on this site, cookies collect data to enhance your experience and personalize the content and advertising you see.
Visit our Privacy Policy to learn more. By continuing to use the site, you agree to this use of cookies and data.
  • Em Portugal
  • Lista de países
  • Para 7 dias
  • Temperatura da água
  • Mapa do tempo
  • Widgets de tempo
  • user-avatar
    Iniciar Sessão

    Previsão horária em Monastyrskoe

    Hoje, 23 Setembro, Segunda-feira

    Tempo Temperatura Precipitação Vento Pressão Humidade
    00:00 -1°C° 0.4 mm 7 m/s 733 mmHg 96%
    01:00 -1°C° 0.2 mm 8 m/s 734 mmHg 95%
    02:00 0°C° 0.2 mm 8 m/s 735 mmHg 95%
    03:00 0°C° 0 mm 7 m/s 736 mmHg 95%
    04:00 0°C° 0.1 mm 7 m/s 737 mmHg 93%
    05:00 0°C° 0.1 mm 7 m/s 738 mmHg 92%
    06:00 0°C° 0.1 mm 7 m/s 739 mmHg 90%
    07:00 0°C° 0.3 mm 7 m/s 740 mmHg 89%
    08:00 0°C° 0.3 mm 7 m/s 741 mmHg 87%
    09:00 +2°C° 0 mm 7 m/s 742 mmHg 85%
    10:00 +2°C° 0 mm 7 m/s 742 mmHg 81%
    11:00 +2°C° 0 mm 7 m/s 743 mmHg 78%
    12:00 +3°C° 0 mm 7 m/s 743 mmHg 74%
    13:00 +3°C° 0.1 mm 7 m/s 744 mmHg 75%
    14:00 +2°C° 0.1 mm 7 m/s 744 mmHg 77%
    15:00 +3°C° 0 mm 6 m/s 744 mmHg 76%
    16:00 +3°C° 0.2 mm 7 m/s 745 mmHg 81%
    17:00 +2°C° 0.2 mm 7 m/s 745 mmHg 87%
    18:00 +2°C° 0.2 mm 7 m/s 745 mmHg 92%
    19:00 +2°C° 0.1 mm 7 m/s 746 mmHg 90%
    20:00 +2°C° 0.1 mm 6 m/s 746 mmHg 88%
    21:00 +1°C° 0.1 mm 6 m/s 746 mmHg 86%
    22:00 +1°C° 0 mm 6 m/s 746 mmHg 87%
    23:00 +1°C° 0 mm 6 m/s 747 mmHg 87%

    Amanhã, 24 Setembro, Terça-feira

    Tempo Temperatura Precipitação Vento Pressão Humidade
    00:00 +1°C° 0 mm 5 m/s 747 mmHg 88%
    01:00 +1°C° 0 mm 5 m/s 747 mmHg 88%
    02:00 +1°C° 0 mm 5 m/s 748 mmHg 87%
    03:00 +1°C° 0 mm 5 m/s 749 mmHg 87%
    04:00 0°C° 0 mm 5 m/s 749 mmHg 88%
    05:00 0°C° 0 mm 5 m/s 749 mmHg 89%
    06:00 0°C° 0 mm 4 m/s 749 mmHg 91%
    07:00 0°C° 0 mm 4 m/s 749 mmHg 89%
    08:00 0°C° 0 mm 4 m/s 749 mmHg 87%
    09:00 +1°C° 0 mm 4 m/s 750 mmHg 86%
    10:00 +3°C° 0 mm 4 m/s 750 mmHg 82%
    11:00 +4°C° 0 mm 4 m/s 750 mmHg 78%
    12:00 +4°C° 0 mm 4 m/s 749 mmHg 74%
    13:00 +5°C° 0.2 mm 4 m/s 749 mmHg 71%
    14:00 +6°C° 0.2 mm 4 m/s 750 mmHg 68%
    15:00 +6°C° 0.2 mm 4 m/s 750 mmHg 65%
    16:00 +7°C° 0.3 mm 3 m/s 750 mmHg 70%
    17:00 +5°C° 0.3 mm 3 m/s 750 mmHg 75%
    18:00 +4°C° 0.3 mm 3 m/s 749 mmHg 80%
    19:00 +3°C° 0 mm 3 m/s 750 mmHg 83%
    20:00 +4°C° 0 mm 2 m/s 750 mmHg 86%
    21:00 +3°C° 0 mm 2 m/s 750 mmHg 89%
    22:00 +3°C° 0 mm 2 m/s 750 mmHg 91%
    23:00 +2°C° 0 mm 2 m/s 750 mmHg 93%

    Depois de amanhã, 25 Setembro, Quarta-feira

    Tempo Temperatura Precipitação Vento Pressão Humidade
    00:00 +2°C° 0 mm 2 m/s 750 mmHg 95%
    01:00 +2°C° 0 mm 2 m/s 750 mmHg 94%
    02:00 +1°C° 0 mm 2 m/s 750 mmHg 94%
    03:00 +1°C° 0 mm 2 m/s 751 mmHg 94%
    04:00 +1°C° 0 mm 2 m/s 751 mmHg 94%
    05:00 -1°C° 0 mm 2 m/s 751 mmHg 94%
    06:00 -1°C° 0 mm 2 m/s 751 mmHg 94%
    07:00 +1°C° 0 mm 2 m/s 751 mmHg 88%
    08:00 +3°C° 0 mm 2 m/s 751 mmHg 82%
    09:00 +3°C° 0 mm 3 m/s 752 mmHg 76%
    10:00 +4°C° 0 mm 3 m/s 752 mmHg 72%
    11:00 +5°C° 0 mm 3 m/s 752 mmHg 68%
    12:00 +5°C° 0 mm 3 m/s 752 mmHg 64%
    13:00 +7°C° 0 mm 3 m/s 752 mmHg 63%
    14:00 +7°C° 0 mm 3 m/s 752 mmHg 62%
    15:00 +7°C° 0 mm 3 m/s 752 mmHg 61%
    16:00 +5°C° 0.1 mm 3 m/s 752 mmHg 66%
    17:00 +4°C° 0.1 mm 3 m/s 752 mmHg 70%
    18:00 +5°C° 0.1 mm 2 m/s 751 mmHg 75%
    19:00 +4°C° 0 mm 2 m/s 752 mmHg 77%
    20:00 +3°C° 0 mm 2 m/s 752 mmHg 78%
    21:00 +3°C° 0 mm 2 m/s 752 mmHg 80%
    22:00 +3°C° 0 mm 2 m/s 752 mmHg 80%
    23:00 +3°C° 0 mm 2 m/s 752 mmHg 80%

    26 Setembro, Quinta-feira

    Tempo Temperatura Precipitação Vento Pressão Humidade
    00:00 +3°C° 0 mm 2 m/s 752 mmHg 80%
    01:00 +3°C° 0 mm 2 m/s 752 mmHg 82%
    02:00 +2°C° 0 mm 2 m/s 752 mmHg 85%
    03:00 +1°C° 0 mm 3 m/s 752 mmHg 87%
    04:00 +2°C° 0.1 mm 2 m/s 752 mmHg 90%
    05:00 +2°C° 0.1 mm 2 m/s 752 mmHg 92%
    06:00 +2°C° 0.1 mm 2 m/s 752 mmHg 95%
    07:00 +3°C° 0 mm 2 m/s 752 mmHg 90%
    08:00 +4°C° 0 mm 2 m/s 752 mmHg 84%
    09:00 +5°C° 0 mm 2 m/s 752 mmHg 79%
    10:00 +5°C° 0 mm 3 m/s 752 mmHg 73%
    11:00 +7°C° 0 mm 3 m/s 752 mmHg 66%
    12:00 +7°C° 0 mm 4 m/s 752 mmHg 59%
    13:00 +7°C° 0 mm 4 m/s 752 mmHg 58%
    14:00 +8°C° 0 mm 4 m/s 752 mmHg 57%
    15:00 +8°C° 0 mm 4 m/s 752 mmHg 56%
    16:00 +7°C° 0 mm 4 m/s 751 mmHg 62%
    17:00 +7°C° 0 mm 3 m/s 751 mmHg 67%
    18:00 +5°C° 0 mm 2 m/s 751 mmHg 73%
    19:00 +5°C° 0 mm 2 m/s 751 mmHg 75%
    20:00 +5°C° 0 mm 2 m/s 751 mmHg 77%
    21:00 +4°C° 0 mm 2 m/s 751 mmHg 79%
    22:00 +4°C° 0 mm 2 m/s 751 mmHg 81%
    23:00 +4°C° 0 mm 2 m/s 751 mmHg 83%

    27 Setembro, Sexta-feira

    Tempo Temperatura Precipitação Vento Pressão Humidade
    00:00 +3°C° 0 mm 2 m/s 751 mmHg 85%
    01:00 +3°C° 0 mm 2 m/s 751 mmHg 87%
    02:00 +3°C° 0 mm 2 m/s 751 mmHg 89%
    03:00 +3°C° 0 mm 2 m/s 751 mmHg 91%
    04:00 +2°C° 0 mm 2 m/s 751 mmHg 91%
    05:00 +2°C° 0 mm 2 m/s 751 mmHg 92%
    06:00 +2°C° 0 mm 2 m/s 750 mmHg 92%
    07:00 +2°C° 0 mm 3 m/s 750 mmHg 87%
    08:00 +4°C° 0 mm 4 m/s 750 mmHg 81%
    09:00 +5°C° 0 mm 4 m/s 750 mmHg 75%
    10:00 +6°C° 0 mm 4 m/s 750 mmHg 71%
    11:00 +7°C° 0 mm 5 m/s 750 mmHg 67%
    12:00 +8°C° 0 mm 5 m/s 749 mmHg 62%
    13:00 +8°C° 0 mm 5 m/s 749 mmHg 63%
    14:00 +8°C° 0 mm 6 m/s 749 mmHg 64%
    15:00 +8°C° 0 mm 6 m/s 749 mmHg 65%
    16:00 +7°C° 0.1 mm 5 m/s 749 mmHg 71%
    17:00 +6°C° 0.1 mm 5 m/s 749 mmHg 78%
    18:00 +6°C° 0.1 mm 5 m/s 749 mmHg 84%
    19:00 +5°C° 0 mm 4 m/s 749 mmHg 86%
    20:00 +5°C° 0 mm 4 m/s 749 mmHg 88%
    21:00 +5°C° 0 mm 4 m/s 749 mmHg 90%
    22:00 +5°C° 0 mm 4 m/s 749 mmHg 91%
    23:00 +5°C° 0 mm 3 m/s 750 mmHg 92%

    28 Setembro, Sábado

    Tempo Temperatura Precipitação Vento Pressão Humidade
    00:00 +4°C° 0 mm 3 m/s 750 mmHg 94%
    01:00 +4°C° 0 mm 3 m/s 750 mmHg 94%
    02:00 +4°C° 0 mm 3 m/s 750 mmHg 95%
    03:00 +3°C° 0 mm 3 m/s 750 mmHg 95%
    04:00 +4°C° 0 mm 2 m/s 751 mmHg 96%
    05:00 +3°C° 0 mm 2 m/s 751 mmHg 96%
    06:00 +3°C° 0 mm 2 m/s 751 mmHg 96%
    07:00 +3°C° 0 mm 2 m/s 751 mmHg 92%
    08:00 +4°C° 0 mm 2 m/s 751 mmHg 89%
    09:00 +4°C° 0 mm 3 m/s 752 mmHg 85%
    10:00 +5°C° 0 mm 3 m/s 752 mmHg 79%
    11:00 +5°C° 0 mm 3 m/s 752 mmHg 73%
    12:00 +7°C° 0 mm 3 m/s 753 mmHg 68%
    13:00 +7°C° 0 mm 3 m/s 753 mmHg 67%
    14:00 +7°C° 0 mm 3 m/s 753 mmHg 66%
    15:00 +7°C° 0 mm 3 m/s 753 mmHg 65%
    16:00 +7°C° 0 mm 3 m/s 753 mmHg 66%
    17:00 +6°C° 0 mm 2 m/s 753 mmHg 68%
    18:00 +6°C° 0 mm 2 m/s 753 mmHg 69%
    19:00 +6°C° 0 mm 2 m/s 754 mmHg 70%
    20:00 +5°C° 0 mm 2 m/s 754 mmHg 71%
    21:00 +5°C° 0 mm 2 m/s 754 mmHg 71%
    22:00 +4°C° 0 mm 2 m/s 754 mmHg 73%
    23:00 +5°C° 0 mm 1 m/s 754 mmHg 74%
    Mostrar mais